Date String (YYYY-MM-DD hh:mm:ss) UTC,Instrument flags,absolute air pressure of the measurement (hPa),sample flow rate (lpm),inlet stack bypass flow (lpm),air temperature of the measurement (°C),ambient temperature measured by the external sensor (°C),aerosol sample conditioner tube jacket temperature (°C),OPC LED temperature (°C),internal box temperature (°C),relative humidity of the measurement (%),span deviation,mass concentration of particles derived from Lorenz-Mie calculation of OPC scattering (μg/m³),mass concentration of particles derived from Lorenz-Mie calculation of OPC scattering (μg/m³),mass concentration of particles derived from Lorenz-Mie calculation of OPC scattering (μg/m³)
DateTimeUTC,F1_M11,P_M11,Q1_M11,Q2_M11,T1_M11,T2_M11,T3_M11,T4_M11,T5_M11,U1_M11,ZSPAN_M11,X0_M11,X2_M11,X1_M11
2024-05-13 16:00:00,SystemResetWarning,0828.2,5.01,000.00,024.8,023.9,000.0,033.0,026.5,023.0,0000.0,0010.15,0003.49,0002.77
2024-05-13 16:01:00,SystemResetWarning,0828.2,5.01,000.00,024.8,024.1,000.0,033.1,026.6,022.1,0000.0,0009.86,0003.49,0002.77
2024-05-13 16:02:00,SystemResetWarning,0828.2,5.00,000.00,024.9,024.2,000.0,033.1,026.7,022.4,0000.0,0009.34,0003.50,0002.75
2024-05-13 16:03:00,SystemResetWarning,0828.2,4.99,000.00,024.9,024.3,000.0,033.1,026.7,023.3,0000.0,0009.99,0003.50,0002.77
2024-05-13 16:04:00,SystemResetWarning,0828.2,4.99,000.00,025.0,024.4,000.0,033.1,026.8,022.9,0000.0,0010.04,0003.49,0002.77
2024-05-13 16:05:00,SystemResetWarning,0828.2,4.99,000.00,025.0,024.5,000.0,033.1,026.8,023.3,0000.0,0010.01,0003.48,0002.75
2024-05-13 16:06:00,SystemResetWarning,0828.2,5.01,000.00,025.1,024.6,000.0,033.2,026.9,024.5,0000.0,0009.77,0003.45,0002.73
2024-05-13 16:07:00,SystemResetWarning,0828.2,5.01,000.00,025.1,024.7,000.0,033.2,027.0,023.6,0000.0,0009.48,0003.38,0002.71
2024-05-13 16:08:00,SystemResetWarning,0828.2,5.00,000.00,025.2,024.7,000.0,033.2,027.0,023.3,0000.0,0008.66,0003.34,0002.68
2024-05-13 16:09:00,SystemResetWarning,0828.2,4.99,000.00,025.1,023.5,000.0,033.3,026.4,022.4,0000.0,0007.63,0003.33,0002.68
2024-05-13 16:10:00,SystemResetWarning,0828.1,5.00,000.00,024.7,021.7,000.0,033.3,025.4,022.4,0000.0,0006.65,0003.29,0002.65
2024-05-13 16:11:00,SystemResetWarning,0828.1,5.01,000.00,024.4,021.7,000.0,033.3,025.3,022.6,0000.0,0006.62,0003.30,0002.64
2024-05-13 16:12:00,SystemResetWarning,0828.1,5.02,000.00,024.3,022.1,000.0,033.2,025.5,021.9,0000.0,0007.10,0003.32,0002.64
2024-05-13 16:13:00,SystemResetWarning,0828.0,4.99,000.00,024.3,022.5,000.0,033.0,025.6,022.1,0000.0,0007.21,0003.28,0002.63
2024-05-13 16:14:00,SystemResetWarning,0828.1,5.00,000.00,024.4,022.8,000.0,033.0,025.9,022.9,0000.0,0006.92,0003.26,0002.59
2024-05-13 16:15:00,SystemResetWarning,0828.1,5.00,000.00,024.4,023.1,000.0,032.9,026.0,022.2,0000.0,0006.75,0003.25,0002.56
2024-05-13 16:16:00,SystemResetWarning,0828.0,5.00,000.00,024.5,023.3,000.0,032.9,026.2,023.1,0000.0,0006.99,0003.28,0002.53
2024-05-13 16:17:00,SystemResetWarning,0828.1,4.99,000.00,024.5,023.5,000.0,032.9,026.3,022.5,0000.0,0007.16,0003.30,0002.51
2024-05-13 16:18:00,SystemResetWarning,0828.1,5.00,000.00,024.6,023.7,000.0,032.8,026.3,023.1,0000.0,0007.41,0003.30,0002.48
2024-05-13 16:19:00,SystemResetWarning,0828.1,5.01,000.00,024.6,023.9,000.0,032.9,026.4,022.1,0000.0,0007.46,0003.31,0002.47
2024-05-13 16:20:00,SystemResetWarning,0828.1,5.01,000.00,024.7,024.0,000.0,032.9,026.5,023.1,0000.0,0007.47,0003.31,0002.46
2024-05-13 16:21:00,SystemResetWarning,0828.1,5.00,000.00,024.7,024.1,000.0,032.9,026.6,023.0,0000.0,0007.82,0003.34,0002.46
2024-05-13 16:22:00,SystemResetWarning,0828.1,5.00,000.00,024.8,024.2,000.0,032.9,026.6,023.2,0000.0,0008.23,0003.35,0002.45
2024-05-13 16:23:00,SystemResetWarning,0828.1,4.99,000.00,024.8,024.3,000.0,032.9,026.7,022.1,0000.0,0008.28,0003.38,0002.46
2024-05-13 16:24:00,SystemResetWarning,0828.1,5.00,000.00,024.9,024.4,000.0,033.0,026.7,023.2,0000.0,0008.39,0003.47,0002.47
2024-05-13 16:25:00,SystemResetWarning,0828.1,5.00,000.00,024.9,024.5,000.0,033.0,026.8,022.8,0000.0,0008.07,0003.48,0002.48
2024-05-13 16:26:00,SystemResetWarning,0828.1,5.02,000.00,025.0,024.6,000.0,033.1,026.8,022.2,0000.0,0008.52,0003.49,0002.50
2024-05-13 16:27:00,SystemResetWarning,0828.1,4.99,000.00,025.0,024.6,000.0,033.1,026.9,022.9,0000.0,0008.64,0003.47,0002.51
2024-05-13 16:28:00,SystemResetWarning,0828.1,4.99,000.00,025.1,024.5,000.0,033.1,026.8,023.0,0000.0,0009.23,0003.45,0002.53
2024-05-13 16:29:00,SystemResetWarning,0828.0,5.00,000.00,024.9,023.0,000.0,033.2,026.0,023.3,0000.0,0009.24,0003.48,0002.57
2024-05-13 16:30:00,SystemResetWarning,0827.9,5.01,000.00,024.5,021.5,000.0,033.2,025.2,024.8,0000.0,0009.24,0003.48,0002.57
2024-05-13 16:31:00,SystemResetWarning,0828.0,5.01,000.00,024.3,021.8,000.0,033.2,025.3,024.2,0000.0,0009.19,0003.47,0002.58
2024-05-13 16:32:00,SystemResetWarning,0828.0,4.99,000.00,024.3,022.2,000.0,033.0,025.5,024.2,0000.0,0009.03,0003.43,0002.58
2024-05-13 16:33:00,SystemResetWarning,0828.0,4.99,000.00,024.3,022.6,000.0,032.9,025.7,023.1,0000.0,0009.05,0003.43,0002.58
2024-05-13 16:34:00,SystemResetWarning,0828.0,5.00,000.00,024.4,022.9,000.0,032.8,026.0,024.3,0000.0,0008.82,0003.41,0002.57
2024-05-13 16:35:00,SystemResetWarning,0828.1,5.01,000.00,024.4,023.2,000.0,032.8,026.1,025.8,0000.0,0008.60,0003.34,0002.56
2024-05-13 16:36:00,SystemResetWarning,0828.0,4.99,000.00,024.5,023.4,000.0,032.8,026.2,023.3,0000.0,0008.56,0003.31,0002.55
2024-05-13 16:37:00,SystemResetWarning,0828.0,5.00,000.00,024.5,023.6,000.0,032.8,026.3,023.0,0000.0,0008.01,0003.31,0002.56
2024-05-13 16:38:00,SystemResetWarning,0828.1,5.00,000.00,024.6,023.8,000.0,032.8,026.3,024.5,0000.0,0008.40,0003.35,0002.56
2024-05-13 16:39:00,SystemResetWarning,0828.1,5.00,000.00,024.6,023.9,000.0,032.8,026.4,024.0,0000.0,0007.82,0003.36,0002.56
2024-05-13 16:40:00,SystemResetWarning,0828.1,5.01,000.00,024.7,024.1,000.0,032.8,026.5,022.4,0000.0,0007.62,0003.35,0002.55
2024-05-13 16:41:00,SystemResetWarning,0828.1,5.00,000.00,024.7,024.2,000.0,032.9,026.6,023.2,0000.0,0007.79,0003.34,0002.55
2024-05-13 16:42:00,SystemResetWarning,0828.1,4.99,000.00,024.8,024.3,000.0,032.9,026.6,023.5,0000.0,0007.87,0003.34,0002.55
2024-05-13 16:43:00,SystemResetWarning,0828.1,5.00,000.00,024.8,024.4,000.0,032.9,026.7,023.7,0000.0,0007.81,0003.37,0002.55
2024-05-13 16:44:00,SystemResetWarning,0828.0,5.00,000.00,024.9,024.4,000.0,032.9,026.7,023.3,0000.0,0007.41,0003.37,0002.54
2024-05-13 16:45:00,SystemResetWarning,0828.0,5.01,000.00,025.0,024.5,000.0,033.0,026.8,023.8,0000.0,0007.35,0003.35,0002.55
2024-05-13 16:46:00,SystemResetWarning,0828.0,4.99,000.00,025.0,024.6,000.0,033.0,026.9,023.2,0000.0,0008.46,0003.36,0002.56
2024-05-13 16:47:00,SystemResetWarning,0827.8,4.98,000.00,025.0,024.1,000.0,033.1,026.6,023.6,0000.0,0008.70,0003.41,0002.57
2024-05-13 16:48:00,SystemResetWarning,0827.8,5.01,000.00,024.7,022.1,000.0,033.2,025.5,024.5,0000.0,0008.91,0003.43,0002.58
2024-05-13 16:49:00,SystemResetWarning,0827.8,5.01,000.00,024.3,021.4,000.0,033.2,025.1,024.6,0000.0,0008.85,0003.44,0002.60
2024-05-13 16:50:00,SystemResetWarning,0827.8,5.01,000.00,024.2,021.8,000.0,033.1,025.2,024.2,0000.0,0008.88,0003.46,0002.62
2024-05-13 16:51:00,SystemResetWarning,0827.8,5.00,000.00,024.2,022.2,000.0,032.9,025.5,024.5,0000.0,0009.41,0003.48,0002.64
2024-05-13 16:52:00,SystemResetWarning,0827.8,4.99,000.00,024.2,022.6,000.0,032.8,025.7,024.2,0000.0,0009.79,0003.50,0002.67
2024-05-13 16:53:00,SystemResetWarning,0827.8,5.00,000.00,024.3,022.9,000.0,032.8,025.9,023.8,0000.0,0009.72,0003.53,0002.68
2024-05-13 16:54:00,SystemResetWarning,0827.8,4.99,000.00,024.3,023.2,000.0,032.7,026.0,023.3,0000.0,0009.86,0003.53,0002.68
2024-05-13 16:55:00,SystemResetWarning,0827.8,5.00,000.00,024.4,023.4,000.0,032.7,026.1,023.3,0000.0,0009.87,0003.50,0002.68
2024-05-13 16:56:00,SystemResetWarning,0827.8,5.00,000.00,024.4,023.6,000.0,032.7,026.2,023.3,0000.0,0010.46,0003.52,0002.67
2024-05-13 16:57:00,SystemResetWarning,0827.9,5.00,000.00,024.5,023.8,000.0,032.7,026.3,024.4,0000.0,0010.24,0003.51,0002.67
2024-05-13 16:58:00,SystemResetWarning,0827.9,5.01,000.00,024.6,023.9,000.0,032.7,026.4,023.7,0000.0,0009.59,0003.50,0002.68
2024-05-13 16:59:00,SystemResetWarning,0827.9,5.01,000.00,024.6,024.1,000.0,032.8,026.5,022.5,0000.0,0009.69,0003.54,0002.69
